monitor-polski.pl alexa rank chart, monitor-polski.pl alexa rank daily changes

monitor-polski.pl alexa rank chart, monitor-polski.pl alexa rank daily changes

monitor-polski.pl
Actual rank:
145 429

RANK HISTORY

Date Rank Diff
2017/10/21 145 429 -566
2017/10/20 145 995 +1 529
2017/10/19 144 466 +5 409
2017/10/18 139 057 +1 885
2017/10/17 137 172 +552
2017/10/16 136 620 -96
2017/10/14 136 716 +993
2017/10/13 135 723 -1 366
2017/10/12 137 089 +1 224
2017/10/11 135 865 -257
2017/10/10 136 122 -1 989
2017/10/09 138 111 -1 649
2017/10/08 139 760 +476
2017/10/07 139 284 +2 200
2017/10/06 137 084 -541
2017/10/05 137 625 +1 076
2017/10/04 136 549 -314
2017/10/03 136 863 -168
2017/10/02 137 031 -455
2017/10/01 137 486 -608
2017/09/30 138 094 +1 616
2017/09/29 136 478 +700
2017/09/28 135 778 +860
2017/09/27 134 918 -548
2017/09/26 135 466 -1 238
2017/09/25 136 704 -1 541
2017/09/24 138 245 -944
2017/09/23 139 189 -3 803
2017/09/22 142 992 -666
2017/09/20 143 658 -667
2017/09/19 144 325 -6 175
2017/09/18 150 500 -1 712
2017/09/17 152 212 -494
2017/09/16 152 706 +1 182
2017/09/15 151 524 +1 524
2017/09/14 150 000 -367
2017/09/13 150 367 +1 391
2017/09/12 148 976 -414
2017/09/11 149 390 -1 843
2017/09/10 151 233 -286
2017/09/09 151 519 +938
2017/09/08 150 581 +1 084
2017/09/07 149 497 -4 023
2017/09/06 153 520 -762
2017/09/05 154 282 -2 987
2017/09/04 157 269 -2 985
2017/09/03 160 254 -2 313
2017/09/02 162 567 -189
2017/09/01 162 756 +417
2017/08/31 162 339 -1 395
2017/08/30 163 734 -4 009
2017/08/29 167 743 -2 395
2017/08/28 170 138 -3 533
2017/08/27 173 671 -221
2017/08/26 173 892 +1 816
2017/08/25 172 076 -1 221
2017/08/24 173 297 -373
2017/08/23 173 670 +1 043
2017/08/22 172 627

WIDGET FOR YOUR SITE

DOMAINS WITH THE NEAREST RANK

Domain Rank
e-ang.pl 145 424
rg-rb.de 145 425
gazo.space 145 426
gaikaex.net 145 427
dampress.net 145 428
monitor-polski.pl 145 429
mancrates.com 145 430
bizsucces.fr 145 431
milanoo.jp 145 432
meteo.by 145 433
priznajem.hr 145 434

DOMAINS WITH THE NEAREST RANK BY TLD .pl

Domain Rank
monedo.pl 145 117
banzaj.pl 145 154
interklasa.pl 145 263
nissan.pl 145 400
e-ang.pl 145 424
monitor-polski.pl 145 429
filmyd.pl 145 508
kuzniewski.pl 145 557
dru.pl 145 798
magazyn-kuchnia.pl 145 845
te-mysli.pl 145 864